Weather reports worldwide

Advertisment
Logan Botanic Garden, United Kingdom (99193): temperature & dewpoint: 14.10.2017 08:00:00 - 20.10.2017 08:00:00 (BST)Logan Botanic Garden, United Kingdom (99193): temperature -20cm: 14.10.2017 08:00:00 - 20.10.2017 08:00:00 (BST)Logan Botanic Garden, United Kingdom (99193): precipitation: 14.10.2017 08:00:00 - 20.10.2017 08:00:00 (BST)
Date & Time tt [°C] td [°C] tt -20cm [°C] rr [mm]
20.10.2017 08:00:00 - - - -
20.10.2017 07:00:00 12,0 11,0 - 0,0
20.10.2017 06:00:00 11,7 11,0 - 0,0
20.10.2017 05:00:00 12,2 11,8 - 0,0
20.10.2017 04:00:00 12,2 11,8 - 0,0
20.10.2017 03:00:00 12,2 11,8 - 1,0
20.10.2017 02:00:00 12,2 11,6 - 1,2
20.10.2017 01:00:00 12,5 12,0 - 4,4
20.10.2017 00:00:00 12,6 11,9 - 3,4
19.10.2017 23:00:00 12,9 12,4 - 3,0
19.10.2017 22:00:00 13,0 12,2 - 1,0
19.10.2017 21:00:00 13,0 12,4 - 0,0
19.10.2017 20:00:00 13,3 12,8 - 1,0
19.10.2017 19:00:00 13,2 12,4 - 0,0
19.10.2017 18:00:00 13,1 11,9 - 0,2
19.10.2017 17:00:00 12,9 11,7 - 0,0
19.10.2017 16:00:00 12,8 11,7 - 0,0
19.10.2017 15:00:00 13,1 11,7 - 0,0
19.10.2017 14:00:00 13,4 11,9 - 0,0
19.10.2017 13:00:00 14,0 12,3 - 0,0
19.10.2017 12:00:00 13,7 12,3 - 0,0
19.10.2017 11:00:00 13,5 12,2 - 0,0
19.10.2017 10:00:00 13,4 12,1 12,7 0,0
19.10.2017 09:00:00 13,6 12,0 - 0,0
19.10.2017 08:00:00 13,3 12,0 - 0,0
19.10.2017 07:00:00 13,1 11,6 - 0,0
19.10.2017 06:00:00 13,3 12,2 - 0,0
19.10.2017 05:00:00 13,0 12,0 - 0,0
19.10.2017 04:00:00 12,6 12,0 - 0,0
19.10.2017 03:00:00 12,6 12,0 - 0,2
19.10.2017 02:00:00 12,5 11,8 - 0,6
19.10.2017 01:00:00 12,9 11,7 - 0,0
19.10.2017 00:00:00 12,7 11,1 - 0,0
18.10.2017 23:00:00 12,5 10,8 - 0,0
18.10.2017 22:00:00 12,5 10,6 - 0,0
18.10.2017 21:00:00 12,4 10,3 - 0,0
18.10.2017 20:00:00 12,5 9,1 - 0,0
18.10.2017 19:00:00 12,4 8,5 - 0,0
18.10.2017 18:00:00 12,3 8,5 - 0,0
18.10.2017 17:00:00 12,4 8,5 - 0,0
18.10.2017 16:00:00 12,7 9,3 - 0,0
18.10.2017 15:00:00 12,9 9,5 - 0,0
18.10.2017 14:00:00 12,8 10,1 - 0,0
18.10.2017 13:00:00 12,5 10,8 - 0,0
18.10.2017 12:00:00 12,1 10,4 - 0,0
18.10.2017 11:00:00 11,8 10,0 - 0,0
18.10.2017 10:00:00 10,6 9,6 12,7 0,0
18.10.2017 09:00:00 10,5 10,0 - 0,2
18.10.2017 08:00:00 10,1 9,6 - 0,2
18.10.2017 07:00:00 10,2 9,7 - 0,4
18.10.2017 06:00:00 9,9 9,6 - 0,0
18.10.2017 05:00:00 7,3 6,9 - 0,0
18.10.2017 04:00:00 7,3 6,7 - 0,0
18.10.2017 03:00:00 7,3 6,6 - 0,0
18.10.2017 02:00:00 7,4 6,0 - 0,0
18.10.2017 01:00:00 9,2 7,7 - 0,0
18.10.2017 00:00:00 10,0 8,6 - 0,0
17.10.2017 23:00:00 10,0 8,4 - 0,0
17.10.2017 22:00:00 10,1 8,2 - 0,0
17.10.2017 21:00:00 11,1 8,6 - 0,0
17.10.2017 20:00:00 11,6 8,5 - 0,0
17.10.2017 19:00:00 11,4 8,6 - 0,0
17.10.2017 18:00:00 12,1 9,6 - 0,0
17.10.2017 17:00:00 12,2 9,7 - 0,0
17.10.2017 16:00:00 13,2 10,6 - 1,0
17.10.2017 15:00:00 13,0 9,8 - 0,0
17.10.2017 14:00:00 12,5 9,6 - 0,0
17.10.2017 13:00:00 12,8 9,1 - 0,0
17.10.2017 12:00:00 12,0 8,8 - 0,0
17.10.2017 11:00:00 11,9 8,5 - 0,0
17.10.2017 10:00:00 11,5 8,4 13,0 0,0
17.10.2017 09:00:00 11,3 8,3 - 0,0
17.10.2017 08:00:00 11,3 8,3 - 0,0
17.10.2017 07:00:00 11,4 8,3 - 0,0
17.10.2017 06:00:00 11,6 8,5 - 0,0
17.10.2017 05:00:00 11,9 8,6 - 0,0
17.10.2017 04:00:00 12,1 8,6 - 0,0
17.10.2017 03:00:00 12,5 8,3 - 0,0
17.10.2017 02:00:00 13,0 9,2 - 0,0
17.10.2017 01:00:00 13,3 9,7 - 0,0
17.10.2017 00:00:00 13,6 11,2 - 0,0
16.10.2017 23:00:00 13,8 11,5 - 0,0
16.10.2017 22:00:00 14,2 11,2 - 0,0
16.10.2017 21:00:00 14,1 11,2 - 0,0
16.10.2017 20:00:00 13,9 11,4 - 0,0
16.10.2017 19:00:00 13,6 11,5 - 0,2
16.10.2017 18:00:00 13,3 10,8 - 0,0
16.10.2017 17:00:00 13,7 10,4 - 0,0
16.10.2017 16:00:00 14,6 10,3 - 0,0
16.10.2017 15:00:00 15,4 10,2 - 0,0
16.10.2017 14:00:00 16,5 12,3 - 0,0
16.10.2017 13:00:00 15,7 13,8 - 0,0
16.10.2017 12:00:00 14,6 13,0 - 0,0
16.10.2017 11:00:00 13,8 12,9 - 0,0
16.10.2017 10:00:00 13,7 13,2 13,2 0,2
16.10.2017 09:00:00 13,5 13,2 - 1,2
16.10.2017 08:00:00 14,0 13,4 - 1,8
16.10.2017 07:00:00 13,9 13,6 - 0,0
16.10.2017 06:00:00 13,4 13,2 - 0,0
16.10.2017 05:00:00 12,0 11,7 - 0,4
16.10.2017 04:00:00 11,4 11,1 - 1,0
16.10.2017 03:00:00 11,3 10,9 - 0,0
16.10.2017 02:00:00 11,4 10,9 - 0,2
16.10.2017 01:00:00 11,2 10,5 - 0,2
16.10.2017 00:00:00 10,6 9,8 - 0,2
15.10.2017 23:00:00 10,8 9,9 - 0,0
15.10.2017 22:00:00 11,1 9,9 - 0,0
15.10.2017 21:00:00 11,2 9,8 - 0,4
15.10.2017 20:00:00 11,6 9,3 - 0,0
15.10.2017 19:00:00 11,8 9,4 - 0,0
15.10.2017 18:00:00 12,0 9,9 - 0,0
15.10.2017 17:00:00 12,4 10,5 - 0,0
15.10.2017 16:00:00 14,4 13,5 - 0,0
15.10.2017 15:00:00 14,7 13,3 - 0,0
15.10.2017 14:00:00 15,1 13,5 - 0,0
15.10.2017 13:00:00 14,7 13,2 - 0,0
15.10.2017 12:00:00 14,7 13,0 - 0,0
15.10.2017 11:00:00 14,6 12,8 - 0,0
15.10.2017 10:00:00 14,9 12,5 13,2 0,0
15.10.2017 09:00:00 14,5 12,3 - 0,0
15.10.2017 08:00:00 14,4 12,2 - 0,0
15.10.2017 07:00:00 14,2 12,2 - 0,0
15.10.2017 06:00:00 14,1 12,3 - 0,0
15.10.2017 05:00:00 14,2 12,3 - 0,0
15.10.2017 04:00:00 14,3 12,4 - 0,0
15.10.2017 03:00:00 14,4 12,5 - 0,0
15.10.2017 02:00:00 14,7 12,1 - 0,0
15.10.2017 01:00:00 14,7 12,6 - 0,0
15.10.2017 00:00:00 14,7 13,0 - 0,0
14.10.2017 23:00:00 14,8 12,8 - 0,0
14.10.2017 22:00:00 14,7 12,8 - 0,0
14.10.2017 21:00:00 14,5 12,9 - 0,0
14.10.2017 20:00:00 14,5 13,0 - 0,0
14.10.2017 19:00:00 14,7 12,9 - 0,0
14.10.2017 18:00:00 14,8 13,7 - 0,0
14.10.2017 17:00:00 14,8 14,1 - 0,0
14.10.2017 16:00:00 14,6 14,2 - 0,0
14.10.2017 15:00:00 13,9 13,6 - 0,0
14.10.2017 14:00:00 13,6 13,3 - 0,0
14.10.2017 13:00:00 13,4 13,0 - 0,0
14.10.2017 12:00:00 13,6 13,1 - 0,0
14.10.2017 11:00:00 13,5 13,0 - 1,0
14.10.2017 10:00:00 13,4 12,8 13,0 0,0
14.10.2017 09:00:00 13,4 12,9 - 0,0
14.10.2017 08:00:00 13,2 12,7 - 0,0

tt = temperature
td = dewpoint
tt -20cm = temperature -20cm
rr = precipitation

Next stations